This is the latest recevied weather packets stored in our database for station/object K1RFS. If no packets are shown the sender has not sent any weather packets the latest 10 day(s).
| Time | Temp. | Humidity | Pressure | Rain* | Wind** | Luminosity | Snow |
|---|---|---|---|---|---|---|---|
| 1777945118 | 20° C | 30% | 992.5 hPa | 0 mm | - | 47 W/m² | - |
| 1777944815 | 20.56° C | 30% | 992.2 hPa | 0 mm | - | 51 W/m² | - |
| 1777944513 | 21.11° C | 29% | 992.4 hPa | 0 mm | - | 79 W/m² | - |
| 1777944211 | 21.11° C | 29% | 992.2 hPa | 0 mm | - | 98 W/m² | - |
| 1777943906 | 20.56° C | 30% | 992.2 hPa | 0 mm | - | 103 W/m² | - |
| 1777943603 | 20.56° C | 30% | 992.2 hPa | 0 mm | - | 84 W/m² | - |
| 1777943299 | 20° C | 30% | 992.5 hPa | 0 mm | - | 72 W/m² | - |
| 1777942995 | 20.56° C | 29% | 992.5 hPa | 0 mm | - | 81 W/m² | - |
| 1777942692 | 20.56° C | 30% | 992.7 hPa | 0 mm | - | 102 W/m² | - |
| 1777942389 | 20.56° C | 30% | 992.6 hPa | 0 mm | - | 112 W/m² | - |
| 1777942086 | 20.56° C | 30% | 992.5 hPa | 0 mm | - | 148 W/m² | - |
| 1777941782 | 20° C | 31% | 992.6 hPa | 0 mm | - | 97 W/m² | - |
| 1777941480 | 20° C | 32% | 992.6 hPa | 0 mm | - | 90 W/m² | - |
| 1777941177 | 20° C | 32% | 992.5 hPa | 0 mm | - | 87 W/m² | - |
| 1777940873 | 20° C | 31% | 992.6 hPa | 0 mm | - | 86 W/m² | - |
| 1777940571 | 20° C | 32% | 992.7 hPa | 0 mm | - | 89 W/m² | - |
| 1777940268 | 20.56° C | 31% | 992.7 hPa | 0 mm | - | 89 W/m² | - |
| 1777939965 | 21.11° C | 31% | 992.7 hPa | 0 mm | - | 96 W/m² | - |
| 1777939662 | 21.67° C | 30% | 992.7 hPa | 0 mm | - | 120 W/m² | - |
| 1777939360 | 21.67° C | 30% | 992.8 hPa | 0 mm | - | 169 W/m² | - |
| 1777939057 | 21.11° C | 31% | 992.7 hPa | 0 mm | - | 169 W/m² | - |
| 1777938753 | 21.67° C | 30% | 992.7 hPa | 0 mm | - | 162 W/m² | - |
| 1777938450 | 21.11° C | 28% | 992.8 hPa | 0 mm | - | 177 W/m² | - |
| 1777938147 | 21.67° C | 27% | 992.8 hPa | 0 mm | - | 229 W/m² | - |
| 1777937843 | 20° C | 30% | 992.7 hPa | 0 mm | - | 304 W/m² | - |
* Rain latest hour (hover to see other rain measurements)
** Current wind speed in m/s (hover to see current wind gust speed)